Home   Weather   Macau   Past weeks

Flag for Macau Past Weather in Macau, Macau — Yesterday and Last 2 Weeks

Now
72 °F

Clear.


Feels Like: 71 °F
Forecast: 71 / 77 °F
Wind: 8 mph from South

Location: Taipa

Current Time: Apr 29, 2017 at 9:44:09 pm

Latest Report: Apr 29, 2017 at 9:00 pm


Visibility: 10 mi

Pressure: 29.92 "Hg

Humidity: 83%

Dew Point: 66 °F

Location of MacauLocation

Past Weather in Macau — Graph

°F

Macau Temperature Yesterday

Maximum temperature yesterday: 75 °F (at 1:30 pm)
Minimum temperature yesterday: 68 °F (at 6:00 am)
Average temperature yesterday: 71 °F

High & Low Weather Summary for the Past Weeks

 TemperatureHumidityPressure
High84 °F (Apr 18, 12:00 pm)100% (Apr 16, 10:00 pm)30.01 "Hg (Apr 16, 10:00 pm)
Low63 °F (Apr 22, 11:40 am)61% (Apr 28, 1:30 pm)29.68 "Hg (Apr 21, 1:30 pm)
Average74 °F87%29.87 "Hg
* Reported Apr 14 8:00 pm — Apr 29 8:30 pm, Macau, Weather by CustomWeather, © 2017

Note: Actual official high and low records may vary slightly from our data, if they occured in-between our weather recording intervals... More about our weather records

Advertising

Macau Weather History for the Previous 24 Hours

Scroll right to see more
 ConditionsComfort  
Time TempWeatherWind HumidityBarometerVisibility
8:30 pm
Sat, Apr 29
73 °FClear.9 mph78%29.92 "Hg10 mi
8:00 pm73 °FPassing clouds.9 mph78%29.92 "HgN/A
7:30 pm73 °FPassing clouds.9 mph78%29.92 "Hg6 mi
6:30 pm73 °FSunny.9 mph78%29.89 "Hg10 mi
6:00 pm75 °FSunny.9 mph74%29.89 "Hg10 mi
5:30 pm75 °FPassing clouds.10 mph74%29.89 "HgN/A
5:00 pm75 °FPassing clouds.10 mph74%29.89 "HgN/A
4:30 pm75 °FPassing clouds.9 mph74%29.89 "HgN/A
3:30 pm77 °FPassing clouds.8 mph69%29.92 "HgN/A
3:00 pm75 °FPassing clouds.8 mph74%29.92 "HgN/A
2:30 pm77 °FPassing clouds.8 mph69%29.92 "Hg5 mi
2:00 pm77 °FPassing clouds.8 mph69%29.95 "Hg5 mi
1:30 pm75 °FPassing clouds.7 mph69%29.95 "Hg5 mi
1:00 pm75 °FPassing clouds.6 mph74%29.95 "Hg5 mi
12:30 pm77 °FPassing clouds.6 mph69%29.98 "Hg6 mi
12:00 pm75 °FPassing clouds.5 mph74%29.98 "Hg6 mi
11:30 am75 °FPassing clouds.6 mph74%29.98 "Hg6 mi
11:00 am75 °FPassing clouds.6 mph74%29.98 "HgN/A
10:30 am73 °FPassing clouds.7 mph78%29.98 "Hg6 mi
10:00 am73 °FPassing clouds.6 mph78%29.98 "Hg6 mi
9:30 am73 °FPassing clouds.5 mph78%30.01 "HgN/A
9:00 am73 °FPassing clouds.3 mph74%29.98 "HgN/A
8:30 am73 °FPassing clouds.2 mph78%29.98 "HgN/A
8:00 am73 °FPassing clouds.2 mph78%29.98 "Hg4 mi
7:30 am72 °FPassing clouds.1 mph83%29.98 "Hg4 mi
7:00 am70 °FPassing clouds.1 mph88%29.95 "Hg4 mi
6:30 am68 °FPassing clouds.2 mph88%29.95 "Hg5 mi
6:00 am66 °FPassing clouds.2 mph94%29.95 "Hg5 mi
5:30 am66 °FPassing clouds.2 mph94%29.95 "Hg6 mi
5:00 am68 °FPassing clouds.2 mph88%29.92 "HgN/A
4:30 am68 °FPassing clouds.2 mph88%29.92 "HgN/A
4:00 am68 °FPassing clouds.2 mph94%29.92 "HgN/A
3:30 am66 °FPassing clouds.2 mph94%29.92 "HgN/A
3:00 am70 °FPassing clouds.2 mph83%29.92 "HgN/A
2:30 am70 °FPassing clouds.2 mph83%29.92 "HgN/A
2:00 am70 °FPassing clouds.2 mph83%29.95 "HgN/A
1:30 am70 °FPassing clouds.3 mph83%29.95 "HgN/A
1:00 am70 °FPassing clouds.3 mph83%29.95 "HgN/A
12:30 am70 °FPassing clouds.2 mph83%29.95 "HgN/A
12:00 am70 °FPassing clouds.6 mph83%29.95 "HgN/A
11:30 pm
Fri, Apr 28
72 °FPassing clouds.6 mph73%29.95 "HgN/A
11:00 pm72 °FPassing clouds.6 mph78%29.95 "HgN/A
10:30 pm72 °FClear.6 mph78%29.95 "Hg10 mi
10:00 pm72 °FPassing clouds.8 mph78%29.95 "HgN/A
9:00 pm72 °FPassing clouds.8 mph78%29.95 "HgN/A
Weather by CustomWeather, © 2017

See weather overviewHow to use our weather pages